Weather History for Vancouver, WA

Change the Weather History Date:

Wednesday, October 17, 2012

  Actual Average Record
Temperature  
Mean Temperature 51 °F 53 °F  
Max Temperature 61 °F 63 °F 80 °F (2002)
Min Temperature 40 °F 44 °F 33 °F (1917)
Degree Days  
Heating Degree Days 14    
Month to date heating degree days 138  
Since 1 July heating degree days 221  
Cooling Degree Days 0    
Month to date cooling degree days 0  
Year to date cooling degree days 398  
Moisture  
Dew Point 43 °F    
Average Humidity 76    
Maximum Humidity 96    
Minimum Humidity 55    
Precipitation  
Precipitation 0.00 in 0.09 in 0.70 in (1953)
Month to date precipitation 1.42 1.51  
Year to date precipitation 28.15 24.90  
Snow  
Snow 0.00 in - - ()
Month to date snowfall 0.0  
Snow Depth 0.00 in    
Sea Level Pressure  
Sea Level Pressure 30.28 in    
Wind  
Wind Speed 2 mph (WNW)    
Max Wind Speed 12 mph    
Max Gust Speed 15 mph    
Visibility 9 miles    
Events      
T = Trace of Precipitation, MM = Missing Value Source: NWS Daily Summary

Daily Weather History Graph

Daily Weather History Graph

Search for Another Location

Airport:

Trip Planner

Search our weather history database for the weather conditions in past years. The results will help you decide how hot, cold, wet, or windy it might be!

Date:

Astronomy

Oct. 17, 2012 Rise Set
Actual Time 7:30 AM PDT 6:20 PM PDT
Civil Twilight 7:00 AM PDT 6:50 PM PDT
Nautical Twilight 6:25 AM PDT 7:24 PM PDT
Astronomical Twilight 5:51 AM PDT 7:59 PM PDT
Moon 10:20 AM PDT (10/17) 7:51 PM PDT (10/17)
Length of Visible Light 11h 49m
Length of Day
10h 49m
Waxing Crescent, 8% of the Moon is Illuminated
Oct 17
Waxing Crescent
Oct 21
First Quarter
Oct 29
Full
Nov 6
Last Quarter
Nov 13
New

Hourly Weather History & Observations

Time (PDT) Temp. Windchill Dew Point Humidity Pressure Visibility Wind Dir Wind Speed Gust Speed Precip Events Conditions
12:53 AM 43.0 °F - 41.0 °F 93% 30.32 in 10.0 mi Calm Calm - N/A   Partly Cloudy
1:43 AM 44.6 °F - 42.8 °F 93% 30.32 in 10.0 mi Calm Calm - N/A   Overcast
1:53 AM 44.1 °F - 42.1 °F 93% 30.32 in 10.0 mi Calm Calm - N/A   Mostly Cloudy
2:53 AM 44.1 °F - 42.1 °F 93% 30.33 in 10.0 mi Calm Calm - N/A   Partly Cloudy
3:53 AM 42.1 °F - 41.0 °F 96% 30.31 in 10.0 mi Calm Calm - N/A   Clear
4:03 AM 41.0 °F - 39.2 °F 93% 30.31 in 1.8 mi Calm Calm - N/A   Clear
4:15 AM 42.8 °F - 39.2 °F 87% 30.31 in 3.0 mi Calm Calm - N/A   Clear
4:53 AM 42.1 °F - 39.9 °F 92% 30.32 in 10.0 mi Calm Calm - N/A   Clear
5:15 AM 39.2 °F - 39.2 °F 100% 30.32 in 10.0 mi Calm Calm - N/A   Partly Cloudy
5:34 AM 41.0 °F - 39.2 °F 93% 30.32 in 10.0 mi Calm Calm - N/A   Mostly Cloudy
5:53 AM 42.1 °F - 39.9 °F 92% 30.31 in 10.0 mi Calm Calm - N/A   Overcast
6:07 AM 44.6 °F - 42.8 °F 93% 30.31 in 10.0 mi Calm Calm - N/A   Overcast
6:27 AM 44.6 °F - 44.6 °F 100% 30.30 in 10.0 mi Calm Calm - N/A   Scattered Clouds
6:53 AM 46.0 °F - 44.1 °F 93% 30.32 in 10.0 mi Calm Calm - N/A   Clear
7:41 AM 44.6 °F - 42.8 °F 93% 30.30 in 10.0 mi Calm Calm - N/A   Mostly Cloudy
7:51 AM 46.4 °F 45.2 °F 44.6 °F 93% 30.31 in 6.0 mi North 3.5 mph - N/A   Mostly Cloudy
7:53 AM 46.0 °F - 44.1 °F 93% 30.31 in 6.0 mi Calm Calm - N/A   Mostly Cloudy
8:53 AM 46.0 °F - 44.1 °F 93% 30.30 in 4.0 mi Calm Calm - N/A   Overcast
9:24 AM 48.2 °F - 44.6 °F 87% 30.31 in 9.0 mi NW 5.8 mph - N/A   Overcast
9:53 AM 48.0 °F - 45.0 °F 89% 30.32 in 10.0 mi NW 4.6 mph - N/A   Mostly Cloudy
10:09 AM 48.2 °F - 44.6 °F 87% 30.33 in 10.0 mi NW 5.8 mph - N/A   Mostly Cloudy
10:21 AM 48.2 °F - 44.6 °F 87% 30.32 in 10.0 mi WNW 4.6 mph - N/A   Scattered Clouds
10:53 AM 50.0 °F - 45.0 °F 83% 30.31 in 10.0 mi Calm Calm - N/A   Mostly Cloudy
11:40 AM 51.8 °F - 44.6 °F 76% 30.29 in 10.0 mi West 3.5 mph - N/A   Scattered Clouds
11:53 AM 53.1 °F - 46.0 °F 77% 30.29 in 10.0 mi Calm Calm - N/A   Partly Cloudy
12:16 PM 55.4 °F - 46.4 °F 72% 30.28 in 10.0 mi SSW 5.8 mph - N/A   Mostly Cloudy
12:25 PM 53.6 °F - 46.4 °F 77% 30.28 in 10.0 mi WSW 6.9 mph - N/A   Scattered Clouds
12:41 PM 55.4 °F - 46.4 °F 72% 30.28 in 10.0 mi West 6.9 mph - N/A   Mostly Cloudy
12:50 PM 55.4 °F - 44.6 °F 67% 30.28 in 10.0 mi West 3.5 mph - N/A   Partly Cloudy
12:53 PM 55.0 °F - 45.0 °F 69% 30.27 in 10.0 mi West 8.1 mph - N/A   Partly Cloudy
1:53 PM 57.0 °F - 45.0 °F 64% 30.25 in 10.0 mi NW 9.2 mph - N/A   Clear
2:53 PM 57.9 °F - 44.1 °F 60% 30.22 in 10.0 mi NW 6.9 mph - N/A   Clear
3:53 PM 60.1 °F - 44.1 °F 55% 30.22 in 10.0 mi WNW 10.4 mph - N/A   Clear
4:53 PM 61.0 °F - 45.0 °F 56% 30.20 in 10.0 mi Calm Calm - N/A   Clear
5:53 PM 60.1 °F - 45.0 °F 57% 30.20 in 10.0 mi WNW 4.6 mph - N/A   Clear
6:53 PM 55.0 °F - 46.0 °F 72% 30.19 in 10.0 mi Calm Calm - N/A   Clear
7:53 PM 52.0 °F - 44.1 °F 74% 30.20 in 10.0 mi Calm Calm - N/A   Clear
8:53 PM 51.1 °F - 44.1 °F 77% 30.20 in 10.0 mi Calm Calm - N/A   Clear
9:53 PM 46.9 °F - 43.0 °F 86% 30.22 in 10.0 mi Calm Calm - N/A   Clear
10:53 PM 48.9 °F - 44.1 °F 83% 30.22 in 10.0 mi Calm Calm - N/A   Clear
11:53 PM 45.0 °F - 42.1 °F 90% 30.20 in 10.0 mi Calm Calm - N/A   Clear